sat.trackr.live / text

‹ back to catalog

KUIPER-00618

NORAD 69294 · 2026-118AD

PAYLOAD ACTIVE UNKNOWN

§ Identity

Operator
Country
US
Launch date
2026-05-29
Launch site
AFETR
Launch vehicle
Mass (kg)
RCS (m²)

External: N2YO · Heavens-Above · Gunter

§ Orbital elements

Epoch: 2026-09-20T04:20:22.518816Z

Period
97.30 min
Inclination
51.9052°
Eccentricity
0.0001604
Mean motion
14.79929268 rev/d
Perigee alt
628.4 km
Apogee alt
630.7 km
Semi-major
7,007.7 km
B*
4.6177e-5
RAAN
330.6139°
Arg perigee
193.9652°
Mean anomaly
166.1266°
Rev number
1,836

§ Raw data

KUIPER-006181 69294U 26118AD  26263.18081619  .00000131  00000+0  46177-4 0  99942 69294  51.9052 330.6139 0001604 193.9652 166.1266 14.79929268 18368

JSON: /api/v1/satellites/69294 · /tle

For live sub-satellite position, see the globe view (requires WebGL).

§ Visibility from observer

Set your observer location to see the next 7 days of passes ≥ 10°. The values pass through the URL so the page stays shareable.

No JS? Fill the form by hand. The geolocation button needs JavaScript.